owner,sensor,date,latitude,longitude,vertical_datum,sea_water_practical_salinity,qcFlag 
TABS,ioos:station:wmo:42048:1,2012-09-01T00:00:00Z,27.9396,-96.8429,2.0,0.0,11111222 
TABS,ioos:station:wmo:42048:1,2012-09-01T00:30:00Z,27.9396,-96.8429,2.0,0.0,11111222 
TABS,ioos:station:wmo:42048:1,2012-09-01T01:00:00Z,27.9396,-96.8429,2.0,0.0,11111222 
TABS,ioos:station:wmo:42048:1,2012-09-01T01:30:00Z,27.9396,-96.8429,2.0,0.0,11111222 
TABS,ioos:station:wmo:42048:1,2012-09-01T02:00:00Z,27.9396,-96.8429,2.0,0.0,11111222 
TABS,ioos:station:wmo:42048:1,2012-09-01T02:30:00Z,27.9396,-96.8429,2.0,0.0,11111222 
TABS,ioos:station:wmo:42048:1,2012-09-01T03:00:00Z,27.9396,-96.8429,2.0,0.0,11111222 
TABS,ioos:station:wmo:42048:1,2012-09-01T03:30:00Z,27.9396,-96.8429,2.0,0.0,11111222 
TABS,ioos:station:wmo:42048:1,2012-09-01T04:00:00Z,27.9396,-96.8429,2.0,0.0,11111222 
TABS,ioos:station:wmo:42048:1,2012-09-01T04:30:00Z,27.9396,-96.8429,2.0,0.0,11111222 
TABS,ioos:station:wmo:42048:1,2012-09-01T05:00:00Z,27.9396,-96.8429,2.0,0.0,11111222 
TABS,ioos:station:wmo:42048:1,2012-09-01T05:30:00Z,27.9396,-96.8429,2.0,0.0,11111222 
TABS,ioos:station:wmo:42048:1,2012-09-01T06:00:00Z,27.9396,-96.8429,2.0,0.0,11111222 
TABS,ioos:station:wmo:42048:1,2012-09-01T06:30:00Z,27.9396,-96.8429,2.0,0.0,11111222 
TABS,ioos:station:wmo:42048:1,2012-09-01T07:00:00Z,27.9396,-96.8429,2.0,0.0,11111222 
TABS,ioos:station:wmo:42048:1,2012-09-01T07:30:00Z,27.9396,-96.8429,2.0,0.0,11111222 
TABS,ioos:station:wmo:42048:1,2012-09-01T08:00:00Z,27.9396,-96.8429,2.0,0.0,11111222 
TABS,ioos:station:wmo:42048:1,2012-09-01T08:30:00Z,27.9396,-96.8429,2.0,0.0,11111222 
TABS,ioos:station:wmo:42048:1,2012-09-01T09:00:00Z,27.9396,-96.8429,2.0,0.0,11111222 
TABS,ioos:station:wmo:42048:1,2012-09-01T09:30:00Z,27.9396,-96.8429,2.0,0.0,11111222 
TABS,ioos:station:wmo:42048:1,2012-09-01T10:00:00Z,27.9396,-96.8429,2.0,0.0,11111222 
TABS,ioos:station:wmo:42048:1,2012-09-01T10:30:00Z,27.9396,-96.8429,2.0,0.0,11111222 
TABS,ioos:station:wmo:42048:1,2012-09-01T11:00:00Z,27.9396,-96.8429,2.0,0.0,11111222 
TABS,ioos:station:wmo:42048:1,2012-09-01T11:30:00Z,27.9396,-96.8429,2.0,0.0,11111222 
TABS,ioos:station:wmo:42048:1,2012-09-01T12:00:00Z,27.9396,-96.8429,2.0,0.0,11111222 
TABS,ioos:station:wmo:42048:1,2012-09-01T12:30:00Z,27.9396,-96.8429,2.0,0.0,11111222 
TABS,ioos:station:wmo:42048:1,2012-09-01T13:00:00Z,27.9396,-96.8429,2.0,0.0,11111222 
TABS,ioos:station:wmo:42048:1,2012-09-01T13:30:00Z,27.9396,-96.8429,2.0,0.0,11111222 
TABS,ioos:station:wmo:42048:1,2012-09-01T14:00:00Z,27.9396,-96.8429,2.0,0.0,11111222 
TABS,ioos:station:wmo:42048:1,2012-09-01T14:30:00Z,27.9396,-96.8429,2.0,0.0,11111222 
TABS,ioos:station:wmo:42048:1,2012-09-01T15:00:00Z,27.9396,-96.8429,2.0,0.0,11111222 
TABS,ioos:station:wmo:42048:1,2012-09-01T15:30:00Z,27.9396,-96.8429,2.0,35.6209,11111222 
TABS,ioos:station:wmo:42048:1,2012-09-01T16:00:00Z,27.9396,-96.8429,2.0,0.0,11111222 
TABS,ioos:station:wmo:42048:1,2012-09-01T16:30:00Z,27.9396,-96.8429,2.0,0.0,11111222 
TABS,ioos:station:wmo:42048:1,2012-09-01T17:00:00Z,27.9396,-96.8429,2.0,0.0,11111222 
TABS,ioos:station:wmo:42048:1,2012-09-01T17:30:00Z,27.9396,-96.8429,2.0,0.0,11111222 
TABS,ioos:station:wmo:42048:1,2012-09-01T18:00:00Z,27.9396,-96.8429,2.0,0.0,11111222 
TABS,ioos:station:wmo:42048:1,2012-09-01T18:30:00Z,27.9396,-96.8429,2.0,0.0,11111222 
TABS,ioos:station:wmo:42048:1,2012-09-01T19:00:00Z,27.9396,-96.8429,2.0,0.0,11111222 
TABS,ioos:station:wmo:42048:1,2012-09-01T19:30:00Z,27.9396,-96.8429,2.0,0.0,11111222 
TABS,ioos:station:wmo:42048:1,2012-09-01T20:00:00Z,27.9396,-96.8429,2.0,0.0,11111222 
TABS,ioos:station:wmo:42048:1,2012-09-01T20:30:00Z,27.9396,-96.8429,2.0,0.0,11111222 
TABS,ioos:station:wmo:42048:1,2012-09-01T21:00:00Z,27.9396,-96.8429,2.0,0.0,11111222 
TABS,ioos:station:wmo:42048:1,2012-09-01T21:30:00Z,27.9396,-96.8429,2.0,0.0,11111222 
TABS,ioos:station:wmo:42048:1,2012-09-01T22:00:00Z,27.9396,-96.8429,2.0,0.0,11111222 
TABS,ioos:station:wmo:42048:1,2012-09-01T22:30:00Z,27.9396,-96.8429,2.0,0.0,11111222 
TABS,ioos:station:wmo:42048:1,2012-09-01T23:00:00Z,27.9396,-96.8429,2.0,0.0,11111222 
TABS,ioos:station:wmo:42048:1,2012-09-01T23:30:00Z,27.9396,-96.8429,2.0,0.0,11111222 
TABS,ioos:station:wmo:42048:1,2012-09-02T00:00:00Z,27.9396,-96.8429,2.0,0.0,11111222 
TABS,ioos:station:wmo:42048:1,2012-09-02T00:30:00Z,27.9396,-96.8429,2.0,0.0,11111222 
TABS,ioos:station:wmo:42048:1,2012-09-02T01:00:00Z,27.9396,-96.8429,2.0,0.0,11111222 
TABS,ioos:station:wmo:42048:1,2012-09-02T01:30:00Z,27.9396,-96.8429,2.0,0.0,11111222 
TABS,ioos:station:wmo:42048:1,2012-09-02T02:00:00Z,27.9396,-96.8429,2.0,0.0,11111222 
TABS,ioos:station:wmo:42048:1,2012-09-02T02:30:00Z,27.9396,-96.8429,2.0,0.0,11111222 
TABS,ioos:station:wmo:42048:1,2012-09-02T03:00:00Z,27.9396,-96.8429,2.0,0.0,11111222 
TABS,ioos:station:wmo:42048:1,2012-09-02T03:30:00Z,27.9396,-96.8429,2.0,0.0,11111222 
TABS,ioos:station:wmo:42048:1,2012-09-02T04:00:00Z,27.9396,-96.8429,2.0,0.0,11111222 
TABS,ioos:station:wmo:42048:1,2012-09-02T04:30:00Z,27.9396,-96.8429,2.0,0.0,11111222 
TABS,ioos:station:wmo:42048:1,2012-09-02T05:00:00Z,27.9396,-96.8429,2.0,0.0,11111222 
TABS,ioos:station:wmo:42048:1,2012-09-02T05:30:00Z,27.9396,-96.8429,2.0,0.0,11111222 
TABS,ioos:station:wmo:42048:1,2012-09-02T06:00:00Z,27.9396,-96.8429,2.0,0.0,11111222 
TABS,ioos:station:wmo:42048:1,2012-09-02T06:30:00Z,27.9396,-96.8429,2.0,0.0,11111222 
TABS,ioos:station:wmo:42048:1,2012-09-02T07:00:00Z,27.9396,-96.8429,2.0,0.0,11111222 
TABS,ioos:station:wmo:42048:1,2012-09-02T07:30:00Z,27.9396,-96.8429,2.0,0.0,11111222 
TABS,ioos:station:wmo:42048:1,2012-09-02T08:00:00Z,27.9396,-96.8429,2.0,0.0,11111222 
TABS,ioos:station:wmo:42048:1,2012-09-02T08:30:00Z,27.9396,-96.8429,2.0,0.0,11111222 
TABS,ioos:station:wmo:42048:1,2012-09-02T09:00:00Z,27.9396,-96.8429,2.0,0.0,11111222 
TABS,ioos:station:wmo:42048:1,2012-09-02T09:30:00Z,27.9396,-96.8429,2.0,0.0,11111222 
TABS,ioos:station:wmo:42048:1,2012-09-02T10:00:00Z,27.9396,-96.8429,2.0,0.0,11111222 
TABS,ioos:station:wmo:42048:1,2012-09-02T10:30:00Z,27.9396,-96.8429,2.0,0.0,11111222 
TABS,ioos:station:wmo:42048:1,2012-09-02T11:00:00Z,27.9396,-96.8429,2.0,0.0,11111222 
TABS,ioos:station:wmo:42048:1,2012-09-02T11:30:00Z,27.9396,-96.8429,2.0,0.0,11111222 
TABS,ioos:station:wmo:42048:1,2012-09-02T12:00:00Z,27.9396,-96.8429,2.0,0.0,11111222 
TABS,ioos:station:wmo:42048:1,2012-09-02T12:30:00Z,27.9396,-96.8429,2.0,0.0,11111222 
TABS,ioos:station:wmo:42048:1,2012-09-02T13:00:00Z,27.9396,-96.8429,2.0,0.0,11111222 
TABS,ioos:station:wmo:42048:1,2012-09-02T13:30:00Z,27.9396,-96.8429,2.0,0.0,11111222 
TABS,ioos:station:wmo:42048:1,2012-09-02T14:00:00Z,27.9396,-96.8429,2.0,0.0,11111222 
TABS,ioos:station:wmo:42048:1,2012-09-02T14:30:00Z,27.9396,-96.8429,2.0,0.0,11111222 
TABS,ioos:station:wmo:42048:1,2012-09-02T15:00:00Z,27.9396,-96.8429,2.0,0.0,11111222 
TABS,ioos:station:wmo:42048:1,2012-09-02T15:30:00Z,27.9396,-96.8429,2.0,0.0,11111222 
TABS,ioos:station:wmo:42048:1,2012-09-02T16:00:00Z,27.9396,-96.8429,2.0,0.0,11111222 
TABS,ioos:station:wmo:42048:1,2012-09-02T16:30:00Z,27.9396,-96.8429,2.0,0.0,11111222 
TABS,ioos:station:wmo:42048:1,2012-09-02T17:00:00Z,27.9396,-96.8429,2.0,0.0,11111222 
TABS,ioos:station:wmo:42048:1,2012-09-02T17:30:00Z,27.9396,-96.8429,2.0,0.0,11111222 
TABS,ioos:station:wmo:42048:1,2012-09-02T18:00:00Z,27.9396,-96.8429,2.0,0.0,11111222 
TABS,ioos:station:wmo:42048:1,2012-09-02T18:30:00Z,27.9396,-96.8429,2.0,0.0,11111222 
TABS,ioos:station:wmo:42048:1,2012-09-02T19:00:00Z,27.9396,-96.8429,2.0,0.0,11111222 
TABS,ioos:station:wmo:42048:1,2012-09-02T19:30:00Z,27.9396,-96.8429,2.0,0.0,11111222 
TABS,ioos:station:wmo:42048:1,2012-09-02T20:00:00Z,27.9396,-96.8429,2.0,0.0,11111222 
TABS,ioos:station:wmo:42048:1,2012-09-02T20:30:00Z,27.9396,-96.8429,2.0,0.0,11111222 
TABS,ioos:station:wmo:42048:1,2012-09-02T21:00:00Z,27.9396,-96.8429,2.0,0.0,11111222 
TABS,ioos:station:wmo:42048:1,2012-09-02T21:30:00Z,27.9396,-96.8429,2.0,0.0,11111222 
TABS,ioos:station:wmo:42048:1,2012-09-02T22:00:00Z,27.9396,-96.8429,2.0,0.0,11111222 
TABS,ioos:station:wmo:42048:1,2012-09-02T22:30:00Z,27.9396,-96.8429,2.0,0.0,11111222 
TABS,ioos:station:wmo:42048:1,2012-09-02T23:00:00Z,27.9396,-96.8429,2.0,0.0,11111222 
TABS,ioos:station:wmo:42048:1,2012-09-02T23:30:00Z,27.9396,-96.8429,2.0,0.0,11111222 
TABS,ioos:station:wmo:42048:1,2012-09-03T00:00:00Z,27.9396,-96.8429,2.0,0.0,11111222 
TABS,ioos:station:wmo:42048:1,2012-09-03T00:30:00Z,27.9396,-96.8429,2.0,0.0,11111222 
TABS,ioos:station:wmo:42048:1,2012-09-03T01:00:00Z,27.9396,-96.8429,2.0,0.0,11111222 
TABS,ioos:station:wmo:42048:1,2012-09-03T01:30:00Z,27.9396,-96.8429,2.0,0.0,11111222 
TABS,ioos:station:wmo:42048:1,2012-09-03T02:00:00Z,27.9396,-96.8429,2.0,0.0,11111222 
TABS,ioos:station:wmo:42048:1,2012-09-03T02:30:00Z,27.9396,-96.8429,2.0,0.0,11111222 
TABS,ioos:station:wmo:42048:1,2012-09-03T03:00:00Z,27.9396,-96.8429,2.0,0.0,11111222 
TABS,ioos:station:wmo:42048:1,2012-09-03T03:30:00Z,27.9396,-96.8429,2.0,0.0,11111222 
TABS,ioos:station:wmo:42048:1,2012-09-03T04:00:00Z,27.9396,-96.8429,2.0,0.0,11111222 
TABS,ioos:station:wmo:42048:1,2012-09-03T04:30:00Z,27.9396,-96.8429,2.0,0.0,11111222 
TABS,ioos:station:wmo:42048:1,2012-09-03T05:00:00Z,27.9396,-96.8429,2.0,36.6818,11111222 
TABS,ioos:station:wmo:42048:1,2012-09-03T05:30:00Z,27.9396,-96.8429,2.0,36.6832,11111222 
TABS,ioos:station:wmo:42048:1,2012-09-03T06:00:00Z,27.9396,-96.8429,2.0,36.6773,11111222 
TABS,ioos:station:wmo:42048:1,2012-09-03T06:30:00Z,27.9396,-96.8429,2.0,36.6786,11111222 
TABS,ioos:station:wmo:42048:1,2012-09-03T07:00:00Z,27.9396,-96.8429,2.0,36.6815,11111222 
TABS,ioos:station:wmo:42048:1,2012-09-03T07:30:00Z,27.9396,-96.8429,2.0,36.6738,11111222 
TABS,ioos:station:wmo:42048:1,2012-09-03T08:00:00Z,27.9396,-96.8429,2.0,36.6726,11111222 
TABS,ioos:station:wmo:42048:1,2012-09-03T08:30:00Z,27.9396,-96.8429,2.0,36.6677,11111222 
TABS,ioos:station:wmo:42048:1,2012-09-03T09:00:00Z,27.9396,-96.8429,2.0,36.6676,11111222 
TABS,ioos:station:wmo:42048:1,2012-09-03T09:30:00Z,27.9396,-96.8429,2.0,36.6646,11111222 
TABS,ioos:station:wmo:42048:1,2012-09-03T10:00:00Z,27.9396,-96.8429,2.0,36.6627,11111222 
TABS,ioos:station:wmo:42048:1,2012-09-03T10:30:00Z,27.9396,-96.8429,2.0,36.6654,11111222 
TABS,ioos:station:wmo:42048:1,2012-09-03T11:00:00Z,27.9396,-96.8429,2.0,36.6624,11111222 
TABS,ioos:station:wmo:42048:1,2012-09-03T11:30:00Z,27.9396,-96.8429,2.0,36.6631,11111222 
TABS,ioos:station:wmo:42048:1,2012-09-03T12:00:00Z,27.9396,-96.8429,2.0,36.662,11111222 
TABS,ioos:station:wmo:42048:1,2012-09-03T12:30:00Z,27.9396,-96.8429,2.0,36.6673,11111222 
TABS,ioos:station:wmo:42048:1,2012-09-03T17:30:00Z,27.9396,-96.8429,2.0,36.6617,11111222 
TABS,ioos:station:wmo:42048:1,2012-09-03T18:00:00Z,27.9396,-96.8429,2.0,36.6608,11111222 
TABS,ioos:station:wmo:42048:1,2012-09-04T18:00:00Z,27.9396,-96.8429,2.0,36.6513,11111222 
TABS,ioos:station:wmo:42048:1,2012-09-04T18:30:00Z,27.9396,-96.8429,2.0,36.6527,11111222 
TABS,ioos:station:wmo:42048:1,2012-09-04T19:00:00Z,27.9396,-96.8429,2.0,36.6676,11111222 
TABS,ioos:station:wmo:42048:1,2012-09-04T19:30:00Z,27.9396,-96.8429,2.0,36.6562,11111222 
TABS,ioos:station:wmo:42048:1,2012-09-04T20:00:00Z,27.9396,-96.8429,2.0,36.6514,11111222 
TABS,ioos:station:wmo:42048:1,2012-09-04T20:30:00Z,27.9396,-96.8429,2.0,36.6481,11111222 
TABS,ioos:station:wmo:42048:1,2012-09-04T21:00:00Z,27.9396,-96.8429,2.0,36.6476,11111222 
TABS,ioos:station:wmo:42048:1,2012-09-04T21:30:00Z,27.9396,-96.8429,2.0,36.6495,11111222 
TABS,ioos:station:wmo:42048:1,2012-09-04T22:00:00Z,27.9396,-96.8429,2.0,36.6477,11111222 
TABS,ioos:station:wmo:42048:1,2012-09-04T22:30:00Z,27.9396,-96.8429,2.0,36.647,11111222 
TABS,ioos:station:wmo:42048:1,2012-09-04T23:00:00Z,27.9396,-96.8429,2.0,36.6453,11111222 
TABS,ioos:station:wmo:42048:1,2012-09-04T23:30:00Z,27.9396,-96.8429,2.0,36.6494,11111222 
TABS,ioos:station:wmo:42048:1,2012-09-05T00:00:00Z,27.9396,-96.8429,2.0,36.6478,11111222 
TABS,ioos:station:wmo:42048:1,2012-09-05T00:30:00Z,27.9396,-96.8429,2.0,36.6474,11111222 
TABS,ioos:station:wmo:42048:1,2012-09-05T01:00:00Z,27.9396,-96.8429,2.0,36.6505,11111222 
TABS,ioos:station:wmo:42048:1,2012-09-05T01:30:00Z,27.9396,-96.8429,2.0,36.6507,11111222 
TABS,ioos:station:wmo:42048:1,2012-09-05T02:00:00Z,27.9396,-96.8429,2.0,36.6492,11111222 
TABS,ioos:station:wmo:42048:1,2012-09-05T02:30:00Z,27.9396,-96.8429,2.0,36.6476,11111222 
TABS,ioos:station:wmo:42048:1,2012-09-05T03:00:00Z,27.9396,-96.8429,2.0,36.6467,11111222 
TABS,ioos:station:wmo:42048:1,2012-09-05T03:30:00Z,27.9396,-96.8429,2.0,36.6453,11111222 
TABS,ioos:station:wmo:42048:1,2012-09-05T04:00:00Z,27.9396,-96.8429,2.0,36.6449,11111222 
TABS,ioos:station:wmo:42048:1,2012-09-05T04:30:00Z,27.9396,-96.8429,2.0,36.646,11111222 
TABS,ioos:station:wmo:42048:1,2012-09-05T05:00:00Z,27.9396,-96.8429,2.0,36.6486,11111222 
TABS,ioos:station:wmo:42048:1,2012-09-05T05:30:00Z,27.9396,-96.8429,2.0,36.6476,11111222 
TABS,ioos:station:wmo:42048:1,2012-09-05T06:00:00Z,27.9396,-96.8429,2.0,36.6481,11111222 
TABS,ioos:station:wmo:42048:1,2012-09-05T20:00:00Z,27.9396,-96.8429,2.0,36.6363,11111222 
TABS,ioos:station:wmo:42048:1,2012-09-06T02:30:00Z,27.9396,-96.8429,2.0,36.6571,11111222 
TABS,ioos:station:wmo:42048:1,2012-09-06T12:30:00Z,27.9396,-96.8429,2.0,36.6166,11111222 
TABS,ioos:station:wmo:42048:1,2012-09-06T13:00:00Z,27.9396,-96.8429,2.0,36.6159,11111222 
TABS,ioos:station:wmo:42048:1,2012-09-06T13:30:00Z,27.9396,-96.8429,2.0,36.6148,11111222 
TABS,ioos:station:wmo:42048:1,2012-09-06T14:00:00Z,27.9396,-96.8429,2.0,36.6163,11111222 
TABS,ioos:station:wmo:42048:1,2012-09-06T14:30:00Z,27.9396,-96.8429,2.0,36.616,11111222 
TABS,ioos:station:wmo:42048:1,2012-09-06T15:00:00Z,27.9396,-96.8429,2.0,36.6166,11111222 
TABS,ioos:station:wmo:42048:1,2012-09-06T15:30:00Z,27.9396,-96.8429,2.0,36.6279,11111222 
TABS,ioos:station:wmo:42048:1,2012-09-06T16:00:00Z,27.9396,-96.8429,2.0,36.624,11111222 
TABS,ioos:station:wmo:42048:1,2012-09-06T16:30:00Z,27.9396,-96.8429,2.0,36.6264,11111222 
TABS,ioos:station:wmo:42048:1,2012-09-06T17:00:00Z,27.9396,-96.8429,2.0,36.6331,11111222 
TABS,ioos:station:wmo:42048:1,2012-09-06T17:30:00Z,27.9396,-96.8429,2.0,36.6508,11111222 
TABS,ioos:station:wmo:42048:1,2012-09-06T18:00:00Z,27.9396,-96.8429,2.0,36.6485,11111222 
TABS,ioos:station:wmo:42048:1,2012-09-06T18:30:00Z,27.9396,-96.8429,2.0,36.6698,11111222 
TABS,ioos:station:wmo:42048:1,2012-09-06T19:00:00Z,27.9396,-96.8429,2.0,36.657,11111222 
TABS,ioos:station:wmo:42048:1,2012-09-06T19:30:00Z,27.9396,-96.8429,2.0,36.6569,11111222 
TABS,ioos:station:wmo:42048:1,2012-09-06T20:00:00Z,27.9396,-96.8429,2.0,36.6667,11111222 
TABS,ioos:station:wmo:42048:1,2012-09-06T20:30:00Z,27.9396,-96.8429,2.0,36.6701,11111222 
TABS,ioos:station:wmo:42048:1,2012-09-06T21:00:00Z,27.9396,-96.8429,2.0,36.6895,11111222 
TABS,ioos:station:wmo:42048:1,2012-09-06T21:30:00Z,27.9396,-96.8429,2.0,36.6951,11111222 
TABS,ioos:station:wmo:42048:1,2012-09-06T22:00:00Z,27.9396,-96.8429,2.0,36.6978,11111222 
TABS,ioos:station:wmo:42048:1,2012-09-06T22:30:00Z,27.9396,-96.8429,2.0,36.6909,11111222 
TABS,ioos:station:wmo:42048:1,2012-09-06T23:00:00Z,27.9396,-96.8429,2.0,36.7004,11111222 
TABS,ioos:station:wmo:42048:1,2012-09-06T23:30:00Z,27.9396,-96.8429,2.0,36.6949,11111222 
TABS,ioos:station:wmo:42048:1,2012-09-07T00:00:00Z,27.9396,-96.8429,2.0,36.6641,11111222 
TABS,ioos:station:wmo:42048:1,2012-09-07T00:30:00Z,27.9396,-96.8429,2.0,36.6582,11111222 
TABS,ioos:station:wmo:42048:1,2012-09-07T01:00:00Z,27.9396,-96.8429,2.0,36.6681,11111222 
TABS,ioos:station:wmo:42048:1,2012-09-08T17:00:00Z,27.9396,-96.8429,2.0,36.6095,11111222 
TABS,ioos:station:wmo:42048:1,2012-09-08T17:30:00Z,27.9396,-96.8429,2.0,36.6045,11111222 
TABS,ioos:station:wmo:42048:1,2012-09-08T18:00:00Z,27.9396,-96.8429,2.0,36.5961,11111222 
TABS,ioos:station:wmo:42048:1,2012-09-08T18:30:00Z,27.9396,-96.8429,2.0,36.6013,11111222 
TABS,ioos:station:wmo:42048:1,2012-09-08T19:00:00Z,27.9396,-96.8429,2.0,36.5974,11111222 
TABS,ioos:station:wmo:42048:1,2012-09-08T19:30:00Z,27.9396,-96.8429,2.0,36.622,11111222 
TABS,ioos:station:wmo:42048:1,2012-09-08T20:00:00Z,27.9396,-96.8429,2.0,36.575,11111222 
TABS,ioos:station:wmo:42048:1,2012-09-08T20:30:00Z,27.9396,-96.8429,2.0,36.5869,11111222 
TABS,ioos:station:wmo:42048:1,2012-09-10T03:00:00Z,27.9396,-96.8429,2.0,36.6727,11111222 
TABS,ioos:station:wmo:42048:1,2012-09-10T03:30:00Z,27.9396,-96.8429,2.0,36.6945,11111222 
TABS,ioos:station:wmo:42048:1,2012-09-10T04:00:00Z,27.9396,-96.8429,2.0,36.6967,11111222 
TABS,ioos:station:wmo:42048:1,2012-09-10T04:30:00Z,27.9396,-96.8429,2.0,36.6976,11111222 
TABS,ioos:station:wmo:42048:1,2012-09-10T05:00:00Z,27.9396,-96.8429,2.0,36.7112,11111222 
TABS,ioos:station:wmo:42048:1,2012-09-10T05:30:00Z,27.9396,-96.8429,2.0,36.7046,11111222 
TABS,ioos:station:wmo:42048:1,2012-09-10T06:00:00Z,27.9396,-96.8429,2.0,36.7049,11111222 
TABS,ioos:station:wmo:42048:1,2012-09-10T06:30:00Z,27.9396,-96.8429,2.0,36.7089,11111222 
TABS,ioos:station:wmo:42048:1,2012-09-10T07:00:00Z,27.9396,-96.8429,2.0,36.7083,11111222 
TABS,ioos:station:wmo:42048:1,2012-09-10T07:30:00Z,27.9396,-96.8429,2.0,36.6926,11111222 
TABS,ioos:station:wmo:42048:1,2012-09-10T08:00:00Z,27.9396,-96.8429,2.0,36.6947,11111222 
TABS,ioos:station:wmo:42048:1,2012-09-10T08:30:00Z,27.9396,-96.8429,2.0,36.6836,11111222 
TABS,ioos:station:wmo:42048:1,2012-09-10T09:00:00Z,27.9396,-96.8429,2.0,36.6798,11111222 
TABS,ioos:station:wmo:42048:1,2012-09-10T09:30:00Z,27.9396,-96.8429,2.0,36.6838,11111222 
TABS,ioos:station:wmo:42048:1,2012-09-11T13:00:00Z,27.9396,-96.8429,2.0,36.7048,11111222 
TABS,ioos:station:wmo:42048:1,2012-09-11T13:30:00Z,27.9396,-96.8429,2.0,36.7028,11111222 
TABS,ioos:station:wmo:42048:1,2012-09-11T14:00:00Z,27.9396,-96.8429,2.0,36.7038,11111222 
TABS,ioos:station:wmo:42048:1,2012-09-12T01:00:00Z,27.9396,-96.8429,2.0,36.7345,11111222 
TABS,ioos:station:wmo:42048:1,2012-09-12T01:30:00Z,27.9396,-96.8429,2.0,36.7343,11111222 
TABS,ioos:station:wmo:42048:1,2012-09-12T02:00:00Z,27.9396,-96.8429,2.0,36.7286,11111222 
TABS,ioos:station:wmo:42048:1,2012-09-12T02:30:00Z,27.9396,-96.8429,2.0,36.7294,11111222 
TABS,ioos:station:wmo:42048:1,2012-09-12T03:00:00Z,27.9396,-96.8429,2.0,36.7248,11111222 
TABS,ioos:station:wmo:42048:1,2012-09-12T03:30:00Z,27.9396,-96.8429,2.0,36.7208,11111222 
TABS,ioos:station:wmo:42048:1,2012-09-13T23:00:00Z,27.9396,-96.8429,2.0,36.6279,11111222 
TABS,ioos:station:wmo:42048:1,2012-09-13T23:30:00Z,27.9396,-96.8429,2.0,36.6297,11111222 
TABS,ioos:station:wmo:42048:1,2012-09-14T00:00:00Z,27.9396,-96.8429,2.0,36.6271,11111222 
TABS,ioos:station:wmo:42048:1,2012-09-14T00:30:00Z,27.9396,-96.8429,2.0,36.63,11111222 
TABS,ioos:station:wmo:42048:1,2012-09-14T01:00:00Z,27.9396,-96.8429,2.0,36.6306,11111222 
TABS,ioos:station:wmo:42048:1,2012-09-14T01:30:00Z,27.9396,-96.8429,2.0,36.6296,11111222 
TABS,ioos:station:wmo:42048:1,2012-09-14T02:00:00Z,27.9396,-96.8429,2.0,36.6319,11111222 
TABS,ioos:station:wmo:42048:1,2012-09-14T02:30:00Z,27.9396,-96.8429,2.0,36.6319,11111222 
TABS,ioos:station:wmo:42048:1,2012-09-14T03:00:00Z,27.9396,-96.8429,2.0,36.6362,11111222 
TABS,ioos:station:wmo:42048:1,2012-09-14T03:30:00Z,27.9396,-96.8429,2.0,36.6384,11111222 
TABS,ioos:station:wmo:42048:1,2012-09-14T04:00:00Z,27.9396,-96.8429,2.0,36.6309,11111222 
TABS,ioos:station:wmo:42048:1,2012-09-14T04:30:00Z,27.9396,-96.8429,2.0,36.6273,11111222 
TABS,ioos:station:wmo:42048:1,2012-09-14T05:00:00Z,27.9396,-96.8429,2.0,36.6294,11111222 
TABS,ioos:station:wmo:42048:1,2012-09-14T05:30:00Z,27.9396,-96.8429,2.0,36.6287,11111222 
TABS,ioos:station:wmo:42048:1,2012-09-14T06:00:00Z,27.9396,-96.8429,2.0,36.6122,11111222 
TABS,ioos:station:wmo:42048:1,2012-09-14T06:30:00Z,27.9396,-96.8429,2.0,36.612,11111222 
TABS,ioos:station:wmo:42048:1,2012-09-14T07:00:00Z,27.9396,-96.8429,2.0,36.6099,11111222 
TABS,ioos:station:wmo:42048:1,2012-09-14T07:30:00Z,27.9396,-96.8429,2.0,36.6042,11111222 
TABS,ioos:station:wmo:42048:1,2012-09-14T08:00:00Z,27.9396,-96.8429,2.0,36.6031,11111222 
TABS,ioos:station:wmo:42048:1,2012-09-14T08:30:00Z,27.9396,-96.8429,2.0,36.602,11111222 
TABS,ioos:station:wmo:42048:1,2012-09-14T09:00:00Z,27.9396,-96.8429,2.0,36.6021,11111222 
TABS,ioos:station:wmo:42048:1,2012-09-14T09:30:00Z,27.9396,-96.8429,2.0,36.5967,11111222 
TABS,ioos:station:wmo:42048:1,2012-09-14T10:00:00Z,27.9396,-96.8429,2.0,36.5897,11111222 
TABS,ioos:station:wmo:42048:1,2012-09-14T10:30:00Z,27.9396,-96.8429,2.0,36.597,11111222 
TABS,ioos:station:wmo:42048:1,2012-09-14T11:00:00Z,27.9396,-96.8429,2.0,36.5128,11111222 
TABS,ioos:station:wmo:42048:1,2012-09-14T11:30:00Z,27.9396,-96.8429,2.0,36.0191,11111222 
TABS,ioos:station:wmo:42048:1,2012-09-14T12:00:00Z,27.9396,-96.8429,2.0,35.4044,11111222 
TABS,ioos:station:wmo:42048:1,2012-09-14T12:30:00Z,27.9396,-96.8429,2.0,35.4336,11111222 
TABS,ioos:station:wmo:42048:1,2012-09-14T13:00:00Z,27.9396,-96.8429,2.0,35.7034,11111222 
TABS,ioos:station:wmo:42048:1,2012-09-14T13:30:00Z,27.9396,-96.8429,2.0,36.0076,11111222 
TABS,ioos:station:wmo:42048:1,2012-09-14T14:00:00Z,27.9396,-96.8429,2.0,36.0901,11111222 
TABS,ioos:station:wmo:42048:1,2012-09-14T14:30:00Z,27.9396,-96.8429,2.0,35.9414,11111222 
TABS,ioos:station:wmo:42048:1,2012-09-14T15:00:00Z,27.9396,-96.8429,2.0,36.0551,11111222 
TABS,ioos:station:wmo:42048:1,2012-09-14T15:30:00Z,27.9396,-96.8429,2.0,36.1077,11111222 
TABS,ioos:station:wmo:42048:1,2012-09-14T16:00:00Z,27.9396,-96.8429,2.0,36.1589,11111222 
TABS,ioos:station:wmo:42048:1,2012-09-14T16:30:00Z,27.9396,-96.8429,2.0,36.2206,11111222 
TABS,ioos:station:wmo:42048:1,2012-09-14T17:00:00Z,27.9396,-96.8429,2.0,36.224,11111222 
TABS,ioos:station:wmo:42048:1,2012-09-14T17:30:00Z,27.9396,-96.8429,2.0,36.3147,11111222 
TABS,ioos:station:wmo:42048:1,2012-09-14T18:00:00Z,27.9396,-96.8429,2.0,36.2929,11111222 
TABS,ioos:station:wmo:42048:1,2012-09-14T18:30:00Z,27.9396,-96.8429,2.0,35.9903,11111222 
TABS,ioos:station:wmo:42048:1,2012-09-14T19:00:00Z,27.9396,-96.8429,2.0,36.1501,11111222 
TABS,ioos:station:wmo:42048:1,2012-09-14T19:30:00Z,27.9396,-96.8429,2.0,36.285,11111222 
TABS,ioos:station:wmo:42048:1,2012-09-14T20:00:00Z,27.9396,-96.8429,2.0,36.4243,11111222 
TABS,ioos:station:wmo:42048:1,2012-09-14T20:30:00Z,27.9396,-96.8429,2.0,36.4054,11111222 
TABS,ioos:station:wmo:42048:1,2012-09-14T21:00:00Z,27.9396,-96.8429,2.0,36.3896,11111222 
TABS,ioos:station:wmo:42048:1,2012-09-14T21:30:00Z,27.9396,-96.8429,2.0,36.3898,11111222 
TABS,ioos:station:wmo:42048:1,2012-09-14T22:00:00Z,27.9396,-96.8429,2.0,36.3823,11111222 
TABS,ioos:station:wmo:42048:1,2012-09-14T22:30:00Z,27.9396,-96.8429,2.0,36.3785,11111222 
TABS,ioos:station:wmo:42048:1,2012-09-14T23:00:00Z,27.9396,-96.8429,2.0,36.3946,11111222 
TABS,ioos:station:wmo:42048:1,2012-09-14T23:30:00Z,27.9396,-96.8429,2.0,36.4278,11111222 
TABS,ioos:station:wmo:42048:1,2012-09-15T00:00:00Z,27.9396,-96.8429,2.0,36.3343,11111222 
TABS,ioos:station:wmo:42048:1,2012-09-15T00:30:00Z,27.9396,-96.8429,2.0,36.3417,11111222 
TABS,ioos:station:wmo:42048:1,2012-09-15T01:00:00Z,27.9396,-96.8429,2.0,36.3623,11111222 
TABS,ioos:station:wmo:42048:1,2012-09-15T01:30:00Z,27.9396,-96.8429,2.0,36.3542,11111222 
TABS,ioos:station:wmo:42048:1,2012-09-15T02:00:00Z,27.9396,-96.8429,2.0,36.3798,11111222 
TABS,ioos:station:wmo:42048:1,2012-09-15T02:30:00Z,27.9396,-96.8429,2.0,36.3913,11111222 
TABS,ioos:station:wmo:42048:1,2012-09-15T03:00:00Z,27.9396,-96.8429,2.0,36.3951,11111222 
TABS,ioos:station:wmo:42048:1,2012-09-15T03:30:00Z,27.9396,-96.8429,2.0,36.4068,11111222 
TABS,ioos:station:wmo:42048:1,2012-09-15T04:00:00Z,27.9396,-96.8429,2.0,36.4161,11111222 
TABS,ioos:station:wmo:42048:1,2012-09-15T04:30:00Z,27.9396,-96.8429,2.0,36.4184,11111222 
TABS,ioos:station:wmo:42048:1,2012-09-15T05:00:00Z,27.9396,-96.8429,2.0,36.4273,11111222 
TABS,ioos:station:wmo:42048:1,2012-09-15T05:30:00Z,27.9396,-96.8429,2.0,36.4403,11111222 